Other Public Products
Issued by NWS Grand Forks, ND

Home | Current Version | Previous Version | Graphics & Text | Print | Product List | Glossary On
Versions: 1 2 3 4 5 6 7 8 9 10 11 12 13 14 15 16 17 18 19 20 21 22 23 24 25 26 27 28 29 30 31 32 33 34 35 36 37 38 39 40 41 42 43 44 45 46 47 48 49 50
817
FPUS83 KFGF 241831
OPUFGF
PRAIRIE TO PINES WEATHER ROUNDUP
NATIONAL WEATHER SERVICE EASTERN NORTH DAKOTA/GRAND FORKS ND
100 PM CDT TUE MAY 24 2016

 **SATELLITE DATA USED TO AUGMENT SKY COVER AT AUTOMATED STATIONS**
 *****  WEATHER ACROSS EASTERN NORTH DAKOTA  *****

CITY           SKY/WX    TMP DP  RH WIND       PRES   REMARKS
GRAND FORKS    MOSUNNY   74  51  44 SW7       29.86R
6HR MIN TEMP:  59; 6HR MAX TEMP:  74;

GRAND FORKS AF SUNNY     73  53  50 NW6       29.87R
GRAND CITY NWS   N/A     75 N/A N/A S5          N/A
BUXTON           N/A     78  55  45 SW2         N/A
DEVILS LAKE    SUNNY     72  45  37 SW5       29.89S
6HR MIN TEMP:  56; 6HR MAX TEMP:  72;

FARGO          SUNNY     81  44  27 W13       29.84F
6HR MIN TEMP:  61; 6HR MAX TEMP:  82; 6HR PCP: TRACE;

WAHPETON ARPT  CLEAR     81  45  28 SE6       29.85S
$$

 *****  WEATHER ACROSS CENTRAL AND WESTERN NORTH DAKOTA  *****

CITY           SKY/WX    TMP DP  RH WIND       PRES   REMARKS
JAMESTOWN      SUNNY     73  49  42 CALM      29.88S
6HR MIN TEMP:  59; 6HR MAX TEMP:  73;

BISMARCK       SUNNY     73  41  31 N5        29.89F
6HR MIN TEMP:  50; 6HR MAX TEMP:  74;

MINOT          SUNNY     75  40  28 S13G22    29.88R
6HR MIN TEMP:  51; 6HR MAX TEMP:  75;

MINOT AFB      MOSUNNY   72  39  30 SW13G20   29.86S
6HR MIN TEMP:  49; 6HR MAX TEMP:  71;

GARRISON         N/A     71  41  33 SW9       29.90S
6HR MIN TEMP:  46; 6HR MAX TEMP:  71;

WILLISTON      PTSUNNY   64  40  41 SW10      29.89R
6HR MIN TEMP:  45; 6HR MAX TEMP:  66;

DICKINSON      SUNNY     66  37  34 SW10      29.90F
6HR MIN TEMP:  40; 6HR MAX TEMP:  66;

HETTINGER      SUNNY     68  40  35 VRB3      29.92F
6HR MIN TEMP:  39; 6HR MAX TEMP:  69;

$$

 *****  OTHER OBSERVATIONS NORTHEAST NORTH DAKOTA  *****

CITY           SKY/WX    TMP DP  RH WIND       PRES   REMARKS
WALHALLA       FAIR      73  46  38 S6        29.87S
LANGDON        FAIR      75  46  35 SW9       29.89S
CAVALIER       FAIR      72  48  43 E7G16     29.87S
GRAFTON        FAIR      72  54  53 VRB5G12   29.88S
CANDO          FAIR      75  45  33 SW10G18   29.90S
FORT TOTTEN      N/A     73  46  37 N6        29.95S
ROLLA            N/A     70  39  32 SW8G16    29.89S
RUGBY          FAIR      72  41  33 SW14      29.88S
 ***** THE ABOVE OBSERVATIONS ARE NON NWS ARE NOT QUALITY
        CONTROLLED AND MAY MIS-REPORT RAIN FOR SNOW...
$$

 *****  OTHER OBSERVATIONS SOUTHEAST NORTH DAKOTA *****

CITY           SKY/WX    TMP DP  RH WIND       PRES   REMARKS
COOPERSTOWN    NOT AVBL
VALLEY CITY    FAIR      73  50  43 W6        29.91R
OAKES            N/A    N/A N/A N/A MISG        N/A
GWINNER        FAIR      81  46  30 E7        29.86S
SHEYENNE NWR     N/A     82  47  29 E3        29.95S
BUFFALO          N/A     76  44  31 W3          N/A
WYNDMERE         N/A     82  50  32 S6          N/A
 ***** THE ABOVE OBSERVATIONS ARE NON NWS ARE NOT QUALITY
       CONTROLLED AND MAY MIS-REPORT RAIN FOR SNOW...
$$

  *****  WEATHER ACROSS NORTHERN MINNESOTA  *****

CITY           SKY/WX    TMP DP  RH WIND       PRES   REMARKS
FLAG ISLAND    MOSUNNY   64  52  63 NW7       29.85S
WARROAD        SUNNY     70  55  60 E7        29.87R
ROSEAU         SUNNY     73  50  43 N3        29.87R
HALLOCK        MOSUNNY   72  50  46 CALM      29.87R
THF RVR FALLS  SUNNY     72  54  53 W9        29.89R
6HR MIN TEMP:  59; 6HR MAX TEMP:  72;

HALSTAD        NOT AVBL
FOSSTON          N/A     73  55  53 SW10      29.89R
BAUDETTE       SUNNY     74  47  38 VRB7      29.85S
6HR MIN TEMP:  55; 6HR MAX TEMP:  74;

WASKISH        SUNNY     73  48  40 W8        29.87R
CROOKSTON      SUNNY     73  54  49 W5        29.88S
$$
  *****  WEATHER ACROSS CENTRAL AND WEST MINNESOTA  *****

CITY           SKY/WX    TMP DP  RH WIND       PRES   REMARKS
BEMIDJI        SUNNY     76  47  35 SW9G16    29.88R
PARK RAPIDS    SUNNY     75  49  39 VRB6      29.88S
6HR MIN TEMP:  58; 6HR MAX TEMP:  75; 6HR PCP: TRACE;

WADENA         MOSUNNY   75  54  46 SE7       29.88S
DETROIT LAKES  SUNNY     75  54  46 S7        29.90R
MOORHEAD       MOSUNNY   79  45  29 CALM      29.86S
FERGUS FALLS   SUNNY     79  54  41 SE6       29.83S
ELBOW LAKE     FAIR      80  58  47 SE5       29.86F
6HR MIN TEMP:  60; 6HR MAX TEMP:  78;

MORRIS MN      SUNNY     81  57  44 CALM      29.85S
STAPLES        MOSUNNY   79  48  34 E5        29.88S
WHEATON        SUNNY     84  52  32 S7        29.85F
$$
  *****  WEATHER ELSEWHERE ACROSS MINNESOTA  *****

CITY           SKY/WX    TMP DP  RH WIND       PRES   REMARKS
DULUTH         MOSUNNY   70  58  65 VRB6      29.90R
6HR MIN TEMP:  59; 6HR MAX TEMP:  70; 6HR PCP:  0.12;

INTRNTL FALLS  SUNNY     77  48  35 W12       29.86R
6HR MIN TEMP:  55; 6HR MAX TEMP:  77;

ELY            SUNNY     72  54  53 CALM      29.89S
CLOQUET        MOSUNNY   72  54  53 CALM      29.90R
BRAINERD       SUNNY     74  53  48 MISG      29.90S
6HR MIN TEMP:  58; 6HR MAX TEMP:  75; 6HR PCP:  0.05;

HIBBING        MOSUNNY   73  49  42 VRB3      29.88R
6HR MIN TEMP:  58; 6HR MAX TEMP:  75;

ALEXANDRIA     MOSUNNY   77  58  51 VRB5      29.89S
6HR MIN TEMP:  62; 6HR MAX TEMP:  77; 6HR PCP: TRACE;

SAINT CLOUD    SUNNY     77  62  59 VRB3      29.88S
6HR MIN TEMP:  61; 6HR MAX TEMP:  77;

MINNEAPOLIS    MOSUNNY   80  59  48 CALM      29.89R
6HR MIN TEMP:  66; 6HR MAX TEMP:  80;

$$

  *****  WEATHER ACROSS SOUTH DAKOTA  *****

CITY           SKY/WX    TMP DP  RH WIND       PRES   REMARKS
SIOUX FALLS    MOSUNNY   79  60  52 CALM      29.87S
6HR MIN TEMP:  62; 6HR MAX TEMP:  79;

BROOKINGS      SUNNY     74  62  66 VRB5      29.88S
WATERTOWN      SUNNY     73  61  65 S5        29.87F
6HR MIN TEMP:  60; 6HR MAX TEMP:  74;

HURON          SUNNY     77  54  44 CALM      29.85F
6HR MIN TEMP:  57; 6HR MAX TEMP:  77;

SISSETON         N/A     80  55  42 SW9       29.84S
ABERDEEN       SUNNY     77  52  41 VRB6      29.85S
6HR MIN TEMP:  58; 6HR MAX TEMP:  78;

MITCHELL       SUNNY     80  56  43 NW3       29.86S
PIERRE         SUNNY     74  53  48 SE6       29.86S
6HR MIN TEMP:  49; 6HR MAX TEMP:  75;

MOBRIDGE       SUNNY     73  45  36 W6        29.87S
RAPID CITY     PTSUNNY   67  44  43 S6        29.91F
6HR MIN TEMP:  47; 6HR MAX TEMP:  67;

$$

  *****  SOME WEATHER IN NEARBY STATES *****

CITY           SKY/WX    TMP DP  RH WIND       PRES   REMARKS
GLASGOW MT     CLOUDY    56  42  59 W16       29.87R
6HR MIN TEMP:  49; 6HR MAX TEMP:  57;

GREAT FALLS MT PTSUNNY   53  38  56 VRB5      29.91S
6HR MIN TEMP:  37; 6HR MAX TEMP:  54;

CHEYENNE WY    SUNNY     62  44  51 S22G30    29.98S
6HR MIN TEMP:  40; 6HR MAX TEMP:  62;

SCOTTSBLUFF NE MOSUNNY   70  48  45 SE13G20   29.92F
6HR MIN TEMP:  39; 6HR MAX TEMP:  71;

OMAHA NE       CLOUDY    77  64  64 N5        29.87F
6HR MIN TEMP:  62; 6HR MAX TEMP:  78;

DES MOINES IA  PTSUNNY   76  64  66 CALM      29.91F
6HR MIN TEMP:  64; 6HR MAX TEMP:  74;

DAVENPORT IA   MOSUNNY   85  59  41 S14       29.94F
6HR MIN TEMP:  66; 6HR MAX TEMP:  85;

CHICAGO IL     PTSUNNY   82  52  35 SW20      29.97F
6HR MIN TEMP:  61; 6HR MAX TEMP:  82;

EAU CLAIRE WI  PTSUNNY   76  61  59 SW8       29.90R
6HR MIN TEMP:  64; 6HR MAX TEMP:  76;

LA CROSSE WI   CLOUDY    78  61  55 S8        29.92S
6HR MIN TEMP:  69; 6HR MAX TEMP:  78;

$$

  *****  SOME NATIONAL WEATHER *****

CITY           SKY/WX    TMP DP  RH WIND       PRES   REMARKS
LA GUARDIA NY  CLOUDY    71  61  70 VRB6      29.90F               C1F1C2F2C3F3C4F4C5F5C6F6C7F7C8F8C9F9CaFaCbFbCcFcCdFdCe!



USA.gov is the U.S. government's official web portal to all federal, state and local government web resources and services.